| time (UTC) | temp C | wind direction | speed KPH | gust KPH | rain 1hr cm | rain 24hr cm | rain mn cm | humidity % | barometer mb |
| 20260903032054 | 11 | 0.0 | 0.0 | 0.00 | 0.00 | 0.00 | 90 | 1011.7 | |
| 20260903031051 | 11 | 0.0 | 0.0 | 0.00 | 0.00 | 0.00 | 89 | 1011.7 | |
| 20260903030107 | 11 | 0.0 | 0.0 | 0.00 | 0.00 | 0.00 | 89 | 1011.7 | |
| 20260903025046 | 12 | 0.0 | 0.0 | 0.00 | 0.00 | 0.00 | 88 | 1011.7 | |
| 20260903024101 | 12 | 0.0 | 0.0 | 0.00 | 0.00 | 0.00 | 88 | 1011.6 | |
| 20260903023037 | 12 | 0.0 | 0.0 | 0.00 | 0.00 | 0.00 | 84 | 1011.9 | |
| 20260903022055 | 12 | 0.0 | 0.0 | 0.00 | 0.00 | 0.00 | 83 | 1012.0 | |
| 20260903021049 | 13 | 0.0 | 0.0 | 0.00 | 0.00 | 0.00 | 83 | 1012.1 | |
| 20260903020046 | 13 | 0.0 | 0.0 | 0.00 | 0.00 | 0.00 | 83 | 1012.2 | |
| 20260903015023 | 13 | 0.0 | 0.0 | 0.00 | 0.00 | 0.00 | 82 | 1012.0 | |
| 20260903014021 | 13 | 0.0 | 0.0 | 0.00 | 0.00 | 0.00 | 82 | 1012.1 | |
| 20260903013116 | 14 | 0.0 | 0.0 | 0.00 | 0.00 | 0.00 | 83 | 1012.1 | |
| 20260903012114 | 14 | 0.0 | 0.0 | 0.00 | 0.00 | 0.00 | 84 | 1012.1 | |
| 20260903011108 | 15 | 0.0 | 0.0 | 0.00 | 0.00 | 0.00 | 85 | 1012.1 | |
| 20260903010106 | 14 | 180 | 0.0 | 3.2 | 0.00 | 0.00 | 0.00 | 86 | 1012.1 |
| 20260903005103 | 14 | 0.0 | 0.0 | 0.00 | 0.00 | 0.00 | 86 | 1012.1 | |
| 20260903004059 | 13 | 0.0 | 0.0 | 0.00 | 0.00 | 0.00 | 86 | 1012.2 | |
| 20260903003055 | 13 | 0.0 | 0.0 | 0.00 | 0.00 | 0.00 | 86 | 1012.2 | |
| 20260903002111 | 13 | 0.0 | 1.6 | 0.00 | 0.00 | 0.00 | 86 | 1012.2 | |
| 20260903001047 | 13 | 0.0 | 0.0 | 0.00 | 0.00 | 0.00 | 86 | 1012.3 | |
| 20260903000043 | 13 | 0.0 | 0.0 | 0.00 | 0.00 | 0.00 | 86 | 1012.2 | |
| 20260902235101 | 13 | 0.0 | 0.0 | 0.00 | 0.00 | 0.00 | 85 | 1012.2 | |
| 20260902234059 | 13 | 0.0 | 1.6 | 0.00 | 0.00 | 0.00 | 85 | 1012.3 | |
| 20260902233033 | 13 | 0.0 | 0.0 | 0.00 | 0.00 | 0.00 | 85 | 1012.2 | |
| 20260902232030 | 13 | 0.0 | 0.0 | 0.00 | 0.00 | 0.00 | 84 | 1012.3 | |
| 20260902231026 | 13 | 0.0 | 0.0 | 0.00 | 0.00 | 0.00 | 84 | 1012.4 | |
| 20260902230022 | 14 | 0.0 | 0.0 | 0.00 | 0.00 | 0.00 | 84 | 1012.3 | |
| 20260902225019 | 14 | 0.0 | 0.0 | 0.00 | 0.00 | 0.00 | 85 | 1012.3 | |
| 20260902224015 | 14 | 0.0 | 0.0 | 0.00 | 0.00 | 0.00 | 85 | 1012.2 | |
| 20260902223115 | 15 | 0.0 | 0.0 | 0.00 | 0.00 | 0.00 | 86 | 1012.3 | |
| 20260902222109 | 15 | 0.0 | 0.0 | 0.00 | 0.00 | 0.00 | 86 | 1012.4 | |
| 20260902221106 | 15 | 0.0 | 0.0 | 0.00 | 0.00 | 0.00 | 86 | 1012.4 | |
| 20260902220203 | 15 | 0.0 | 0.0 | 0.00 | 0.00 | 0.00 | 86 | 1012.5 | |
| 20260902215121 | 15 | 0.0 | 0.0 | 0.00 | 0.00 | 0.00 | 86 | 1012.5 | |
| 20260902214115 | 15 | 0.0 | 0.0 | 0.00 | 0.00 | 0.00 | 85 | 1012.5 | |
| 20260902213051 | 15 | 0.0 | 0.0 | 0.00 | 0.00 | 0.00 | 85 | 1012.5 | |
| 20260902212048 | 15 | 0.0 | 0.0 | 0.00 | 0.00 | 0.00 | 85 | 1012.6 | |
| 20260902211105 | 15 | 0.0 | 0.0 | 0.00 | 0.00 | 0.00 | 84 | 1012.4 | |
| 20260902210040 | 15 | 0.0 | 0.0 | 0.00 | 0.00 | 0.00 | 84 | 1012.4 | |
| 20260902205037 | 15 | 0.0 | 0.0 | 0.00 | 0.00 | 0.00 | 83 | 1012.5 | |
| 20260902204033 | 15 | 0.0 | 0.0 | 0.00 | 0.00 | 0.00 | 82 | 1012.6 | |
| 20260902203031 | 15 | 0.0 | 0.0 | 0.00 | 0.00 | 0.00 | 82 | 1012.7 | |
| 20260902202027 | 16 | 0.0 | 0.0 | 0.00 | 0.00 | 0.00 | 82 | 1012.7 | |
| 20260902201105 | 16 | 0.0 | 0.0 | 0.00 | 0.00 | 0.00 | 82 | 1012.6 | |
| 20260902200020 | 16 | 0.0 | 0.0 | 0.00 | 0.00 | 0.00 | 81 | 1012.5 | |
| 20260902195115 | 16 | 0.0 | 0.0 | 0.00 | 0.00 | 0.00 | 80 | 1012.5 | |
| 20260902194112 | 16 | 0.0 | 0.0 | 0.00 | 0.00 | 0.00 | 80 | 1012.5 | |
| 20260902193108 | 16 | 0.0 | 0.0 | 0.00 | 0.00 | 0.00 | 78 | 1012.5 | |
| 20260902192105 | 16 | 0.0 | 0.0 | 0.00 | 0.00 | 0.00 | 77 | 1012.7 | |
| 20260902191101 | 17 | 0.0 | 0.0 | 0.00 | 0.00 | 0.00 | 76 | 1012.6 | |
| 20260902190117 | 17 | 0.0 | 0.0 | 0.00 | 0.00 | 0.00 | 75 | 1012.6 | |
| 20260902185114 | 17 | 0.0 | 0.0 | 0.00 | 0.00 | 0.00 | 73 | 1012.7 | |
| 20260902184050 | 17 | 0.0 | 0.0 | 0.00 | 0.00 | 0.00 | 71 | 1012.7 | |
| 20260902183046 | 17 | 0.0 | 0.0 | 0.00 | 0.00 | 0.00 | 70 | 1012.6 | |
| 20260902182043 | 18 | 0.0 | 0.0 | 0.00 | 0.00 | 0.00 | 67 | 1012.6 | |
| 20260902181038 | 18 | 0.0 | 0.0 | 0.00 | 0.00 | 0.00 | 64 | 1012.6 | |
| 20260902180036 | 18 | 0.0 | 0.0 | 0.00 | 0.00 | 0.00 | 63 | 1012.5 | |
| 20260902175055 | 18 | 0.0 | 0.0 | 0.00 | 0.00 | 0.00 | 61 | 1012.4 | |
| 20260902174049 | 19 | 0.0 | 0.0 | 0.00 | 0.00 | 0.00 | 60 | 1012.4 | |
| 20260902173026 | 20 | 0.0 | 0.0 | 0.00 | 0.00 | 0.00 | 58 | 1012.5 | |
| 20260902172020 | 20 | 0.0 | 0.0 | 0.00 | 0.00 | 0.00 | 57 | 1012.4 | |
| 20260902171017 | 20 | 0.0 | 0.0 | 0.00 | 0.00 | 0.00 | 55 | 1012.3 | |
| 20260902170136 | 21 | 0.0 | 0.0 | 0.00 | 0.00 | 0.00 | 54 | 1012.4 | |
| 20260902165110 | 21 | 67 | 0.0 | 3.2 | 0.00 | 0.00 | 0.00 | 52 | 1012.5 |
| 20260902164107 | 21 | 40 | 1.6 | 4.8 | 0.00 | 0.00 | 0.00 | 51 | 1012.4 |
| 20260902163105 | 21 | 0 | 1.6 | 4.8 | 0.00 | 0.00 | 0.00 | 51 | 1012.4 |
| 20260902162102 | 22 | 352 | 3.2 | 8.0 | 0.00 | 0.00 | 0.00 | 50 | 1012.4 |
| 20260902161057 | 22 | 1 | 1.6 | 3.2 | 0.00 | 0.00 | 0.00 | 50 | 1012.4 |
| 20260902160055 | 22 | 0 | 0.0 | 3.2 | 0.00 | 0.00 | 0.00 | 50 | 1012.3 |
| 20260902155134 | 22 | 350 | 1.6 | 6.4 | 0.00 | 0.00 | 0.00 | 50 | 1012.5 |
| 20260902154045 | 22 | 343 | 3.2 | 4.8 | 0.00 | 0.00 | 0.00 | 45 | 1012.6 |
| 20260902153120 | 22 | 307 | 1.6 | 6.4 | 0.00 | 0.00 | 0.00 | 46 | 1012.5 |
| 20260902152100 | 22 | 319 | 4.8 | 8.0 | 0.00 | 0.00 | 0.00 | 43 | 1012.7 |
| 20260902151035 | 23 | 312 | 4.8 | 11.3 | 0.00 | 0.00 | 0.00 | 42 | 1012.8 |
| 20260902150030 | 23 | 259 | 3.2 | 9.7 | 0.00 | 0.00 | 0.00 | 44 | 1012.7 |
| 20260902145026 | 22 | 319 | 3.2 | 9.7 | 0.00 | 0.00 | 0.00 | 46 | 1012.8 |
| 20260902144024 | 22 | 312 | 3.2 | 6.4 | 0.00 | 0.00 | 0.00 | 45 | 1012.8 |
| 20260902143020 | 22 | 309 | 3.2 | 6.4 | 0.00 | 0.00 | 0.00 | 45 | 1012.9 |
| 20260902142018 | 22 | 284 | 4.8 | 9.7 | 0.00 | 0.00 | 0.00 | 46 | 1012.9 |
| 20260902141112 | 22 | 305 | 4.8 | 12.9 | 0.00 | 0.00 | 0.00 | 46 | 1012.9 |
| 20260902140109 | 22 | 285 | 4.8 | 8.0 | 0.00 | 0.00 | 0.00 | 47 | 1013.0 |
| 20260902135147 | 22 | 300 | 4.8 | 8.0 | 0.00 | 0.00 | 0.00 | 46 | 1012.9 |
| 20260902134103 | 23 | 18 | 3.2 | 6.4 | 0.00 | 0.00 | 0.00 | 46 | 1012.9 |
| 20260902133059 | 23 | 1 | 1.6 | 6.4 | 0.00 | 0.00 | 0.00 | 46 | 1012.9 |
| 20260902132056 | 23 | 43 | 4.8 | 9.7 | 0.00 | 0.00 | 0.00 | 46 | 1013.0 |
| 20260902131052 | 23 | 230 | 4.8 | 8.0 | 0.00 | 0.00 | 0.00 | 45 | 1013.0 |
| 20260902130048 | 23 | 264 | 4.8 | 9.7 | 0.00 | 0.00 | 0.00 | 45 | 1013.0 |
| 20260902125048 | 23 | 17 | 4.8 | 6.4 | 0.00 | 0.00 | 0.00 | 44 | 1013.0 |
| 20260902124041 | 24 | 89 | 4.8 | 8.0 | 0.00 | 0.00 | 0.00 | 43 | 1013.0 |
| 20260902123041 | 25 | 349 | 4.8 | 8.0 | 0.00 | 0.00 | 0.00 | 43 | 1013.1 |
| 20260902122055 | 23 | 299 | 4.8 | 8.0 | 0.00 | 0.00 | 0.00 | 43 | 1013.0 |
| 20260902121032 | 24 | 275 | 6.4 | 11.3 | 0.00 | 0.00 | 0.00 | 43 | 1013.1 |
| 20260902120048 | 24 | 305 | 3.2 | 9.7 | 0.00 | 0.00 | 0.00 | 44 | 1013.1 |
| 20260902115023 | 24 | 297 | 4.8 | 11.3 | 0.00 | 0.00 | 0.00 | 45 | 1013.2 |
| 20260902114020 | 23 | 291 | 1.6 | 6.4 | 0.00 | 0.00 | 0.00 | 45 | 1013.2 |
| 20260902113018 | 24 | 304 | 3.2 | 6.4 | 0.00 | 0.00 | 0.00 | 45 | 1013.2 |
| 20260902112113 | 24 | 274 | 3.2 | 8.0 | 0.00 | 0.00 | 0.00 | 46 | 1013.4 |
| 20260902111110 | 24 | 256 | 1.6 | 6.4 | 0.00 | 0.00 | 0.00 | 46 | 1013.4 |
| 20260902110106 | 24 | 325 | 3.2 | 6.4 | 0.00 | 0.00 | 0.00 | 44 | 1013.5 |
| 20260902105104 | 25 | 176 | 6.4 | 12.9 | 0.00 | 0.00 | 0.00 | 44 | 1013.4 |
| 20260902104059 | 25 | 352 | 6.4 | 12.9 | 0.00 | 0.00 | 0.00 | 43 | 1013.6 |
| 20260902103055 | 25 | 216 | 4.8 | 9.7 | 0.00 | 0.00 | 0.00 | 45 | 1013.5 |
| 20260902102051 | 23 | 343 | 6.4 | 12.9 | 0.00 | 0.00 | 0.00 | 49 | 1013.5 |
| 20260902101048 | 23 | 356 | 4.8 | 11.3 | 0.00 | 0.00 | 0.00 | 48 | 1013.5 |
| 20260902100044 | 23 | 8 | 6.4 | 8.0 | 0.00 | 0.00 | 0.00 | 47 | 1013.5 |
| 20260902095041 | 23 | 8 | 4.8 | 9.7 | 0.00 | 0.00 | 0.00 | 51 | 1013.6 |
| 20260902094100 | 22 | 340 | 6.4 | 12.9 | 0.00 | 0.00 | 0.00 | 51 | 1013.6 |
| 20260902093034 | 23 | 252 | 3.2 | 11.3 | 0.00 | 0.00 | 0.00 | 51 | 1013.5 |
| 20260902092051 | 23 | 257 | 3.2 | 6.4 | 0.00 | 0.00 | 0.00 | 52 | 1013.6 |
| 20260902091027 | 23 | 309 | 4.8 | 6.4 | 0.00 | 0.00 | 0.00 | 52 | 1013.6 |
| 20260902090025 | 23 | 329 | 4.8 | 8.0 | 0.00 | 0.00 | 0.00 | 52 | 1013.5 |
| 20260902085020 | 23 | 253 | 4.8 | 8.0 | 0.00 | 0.00 | 0.00 | 53 | 1013.6 |
| 20260902084038 | 22 | 296 | 4.8 | 11.3 | 0.00 | 0.03 | 0.00 | 53 | 1013.5 |
| 20260902083115 | 22 | 344 | 4.8 | 11.3 | 0.00 | 0.05 | 0.00 | 54 | 1013.5 |
| 20260902082110 | 22 | 16 | 3.2 | 9.7 | 0.00 | 0.05 | 0.00 | 60 | 1013.6 |
| 20260902081105 | 21 | 333 | 4.8 | 6.4 | 0.00 | 0.05 | 0.00 | 62 | 1013.6 |
| 20260902075058 | 21 | 281 | 3.2 | 8.0 | 0.00 | 0.05 | 0.00 | 63 | 1013.8 |
| 20260902074116 | 21 | 8 | 3.2 | 9.7 | 0.00 | 0.05 | 0.00 | 64 | 1013.7 |
| 20260902073054 | 20 | 246 | 4.8 | 8.0 | 0.00 | 0.05 | 0.00 | 64 | 1013.7 |
| 20260902072047 | 21 | 290 | 3.2 | 6.4 | 0.00 | 0.05 | 0.00 | 65 | 1013.7 |
| 20260902071044 | 20 | 340 | 3.2 | 8.0 | 0.00 | 0.05 | 0.00 | 67 | 1013.6 |
| 20260902070043 | 20 | 324 | 3.2 | 6.4 | 0.00 | 0.05 | 0.00 | 69 | 1013.6 |
| 20260902065038 | 20 | 44 | 4.8 | 8.0 | 0.00 | 0.05 | 0.00 | 69 | 1013.6 |
| 20260902064055 | 19 | 200 | 3.2 | 4.8 | 0.00 | 0.05 | 0.00 | 69 | 1013.5 |
| 20260902063030 | 19 | 18 | 3.2 | 6.4 | 0.00 | 0.05 | 0.00 | 70 | 1013.5 |
| 20260902062027 | 19 | 296 | 1.6 | 4.8 | 0.00 | 0.05 | 0.00 | 71 | 1013.5 |
| 20260902061023 | 18 | 299 | 3.2 | 8.0 | 0.00 | 0.05 | 0.00 | 72 | 1013.3 |
| 20260902060019 | 18 | 270 | 1.6 | 6.4 | 0.00 | 0.05 | 0.00 | 74 | 1013.2 |
| 20260902055017 | 18 | 231 | 3.2 | 4.8 | 0.00 | 0.05 | 0.00 | 77 | 1013.3 |
| 20260902054113 | 18 | 305 | 1.6 | 4.8 | 0.00 | 0.05 | 0.00 | 83 | 1013.2 |
| 20260902053109 | 17 | 0.0 | 0.0 | 0.00 | 0.05 | 0.00 | 89 | 1013.1 | |
| 20260902052126 | 16 | 0.0 | 0.0 | 0.00 | 0.05 | 0.00 | 90 | 1013.0 | |
| 20260902051101 | 15 | 0.0 | 0.0 | 0.00 | 0.05 | 0.00 | 90 | 1013.1 | |
| 20260902050058 | 15 | 0.0 | 0.0 | 0.00 | 0.05 | 0.00 | 90 | 1013.0 | |
| 20260902045054 | 14 | 0.0 | 0.0 | 0.00 | 0.05 | 0.00 | 89 | 1012.8 | |
| 20260902044052 | 13 | 0.0 | 0.0 | 0.00 | 0.05 | 0.00 | 89 | 1012.8 | |
| 20260902043048 | 13 | 0.0 | 0.0 | 0.00 | 0.05 | 0.00 | 88 | 1012.8 | |
| 20260902042043 | 14 | 90 | 0.0 | 3.2 | 0.00 | 0.05 | 0.00 | 88 | 1012.8 |
| 20260902041100 | 14 | 0.0 | 0.0 | 0.00 | 0.05 | 0.00 | 88 | 1012.7 | |
| 20260902040038 | 14 | 0.0 | 0.0 | 0.00 | 0.05 | 0.00 | 88 | 1012.7 | |
| 20260902035051 | 14 | 0.0 | 1.6 | 0.00 | 0.05 | 0.00 | 87 | 1012.7 | |
| 20260902034026 | 14 | 0.0 | 0.0 | 0.00 | 0.05 | 0.00 | 87 | 1012.6 | |
| 20260902033023 | 14 | 0 | 0.0 | 3.2 | 0.00 | 0.05 | 0.00 | 86 | 1012.6 |